Volver al catálogo

COSMOS 1275 DEB

ActivoPO
NORAD 42170·DEBRIS·🇷🇺 Russia

Lanzado Jun 4, 1981 desde Plesetsk Cosmodrome

Loading…

Próximos Pases (próximas 24 horas)

TLE

ObsoletoSource: Space-Track

Época: Aug 18, 2026, 06:13 UTC

1 42170U 81053SJ  26230.25903394  .00000403  00000-0  54920-3 0  9999
2 42170  82.7581 230.9136 0196106 159.0727 201.8586 13.49104893593655

Sigue COSMOS 1275 DEB en tiempo real con AllMySat

Download on the App Store